CW2274 Weather Reports


time (UTC)temp
C
wind
direction
speed
KPH
gust
KPH
rain 1hr
cm
rain 24hr
cm
rain mn
cm
humidity
%
barometer
mb
20260510205025 38 294 3.2 16.1 0.00 0.00 0.00 7 1013.8
20260510204521 38 358 4.8 16.1 0.00 0.00 0.00 7 1013.8
20260510204021 37 292 4.8 14.5 0.00 0.00 0.00 7 1013.8
20260510203518 37 1 8.0 14.5 0.00 0.00 0.00 7 1013.9
20260510203013 37 34 4.8 14.5 0.00 0.00 0.00 7 1014.0
20260510202529 38 10 6.4 14.5 0.00 0.00 0.00 6 1014.0
20260510202025 38 23 4.8 14.5 0.00 0.00 0.00 6 1014.1
20260510201521 38 305 4.8 14.5 0.00 0.00 0.00 6 1014.0
20260510201016 38 14 6.4 16.1 0.00 0.00 0.00 7 1014.2
20260510200516 36 27 8.0 16.1 0.00 0.00 0.00 7 1014.1
20260510200043 37 48 8.0 19.3 0.00 0.00 0.00 6 1014.2
20260510195525 37 12 4.8 19.3 0.00 0.00 0.00 7 1014.3
20260510195020 37 355 4.8 12.9 0.00 0.00 0.00 6 1014.4
20260510194516 38 348 6.4 16.1 0.00 0.00 0.00 6 1014.4
20260510194032 38 287 6.4 16.1 0.00 0.00 0.00 7 1014.3
20260510193527 38 273 3.2 11.3 0.00 0.00 0.00 7 1014.3
20260510193027 37 9 3.2 14.5 0.00 0.00 0.00 7 1014.4
20260510192523 37 288 6.4 14.5 0.00 0.00 0.00 8 1014.4
20260510192018 37 8 3.2 14.5 0.00 0.00 0.00 7 1014.4
20260510191515 36 45 6.4 14.5 0.00 0.00 0.00 7 1014.4
20260510191031 37 31 3.2 8.0 0.00 0.00 0.00 7 1014.5
20260510190528 37 21 3.2 16.1 0.00 0.00 0.00 7 1014.5
20260510190036 36 29 6.4 16.1 0.00 0.00 0.00 7 1014.7
20260510185521 37 346 4.8 12.9 0.00 0.00 0.00 8 1014.8
20260510185017 37 291 3.2 11.3 0.00 0.00 0.00 7 1014.8
20260510184513 36 2 3.2 11.3 0.00 0.00 0.00 8 1014.9
20260510184028 37 309 3.2 14.5 0.00 0.00 0.00 7 1015.0
20260510183524 37 275 6.4 14.5 0.00 0.00 0.00 7 1014.9
20260510183020 36 352 1.6 9.7 0.00 0.00 0.00 7 1015.0
20260510182515 37 352 3.2 11.3 0.00 0.00 0.00 8 1015.0
20260510182014 35 8 4.8 11.3 0.00 0.00 0.00 8 1015.1
20260510181530 35 306 3.2 11.3 0.00 0.00 0.00 8 1015.1
20260510181026 36 237 4.8 9.7 0.00 0.00 0.00 8 1015.2
20260510180521 36 292 4.8 11.3 0.00 0.00 0.00 9 1015.1
20260510180029 35 271 4.8 9.7 0.00 0.00 0.00 9 1015.1
20260510175531 35 76 3.2 9.7 0.00 0.00 0.00 9 1015.1
20260510175026 36 348 4.8 9.7 0.00 0.00 0.00 9 1015.2
20260510174522 35 335 1.6 6.4 0.00 0.00 0.00 9 1015.2
20260510174022 35 13 1.6 9.7 0.00 0.00 0.00 9 1015.2
20260510173518 34 13 3.2 9.7 0.00 0.00 0.00 9 1015.2
20260510173013 34 242 1.6 8.0 0.00 0.00 0.00 9 1015.2
20260510172528 34 242 4.8 8.0 0.00 0.00 0.00 9 1015.2
20260510172024 35 57 1.6 4.8 0.00 0.00 0.00 10 1015.3
20260510171520 33 57 3.2 6.4 0.00 0.00 0.00 11 1015.3
20260510171016 33 58 3.2 6.4 0.00 0.00 0.00 10 1015.3
20260510170515 33 69 3.2 9.7 0.00 0.00 0.00 11 1015.4
20260510170043 32 76 4.8 9.7 0.00 0.00 0.00 11 1015.4
20260510165524 32 8 3.2 8.0 0.00 0.00 0.00 11 1015.4
20260510165020 32 6 3.2 8.0 0.00 0.00 0.00 11 1015.3
20260510164515 32 102 1.6 6.4 0.00 0.00 0.00 11 1015.3
20260510164031 31 102 3.2 8.0 0.00 0.00 0.00 12 1015.2
20260510163527 31 104 1.6 8.0 0.00 0.00 0.00 12 1015.2
20260510163027 32 117 1.6 6.4 0.00 0.00 0.00 12 1015.3
20260510162522 31 101 3.2 8.0 0.00 0.00 0.00 13 1015.3
20260510162018 30 103 4.8 8.0 0.00 0.00 0.00 13 1015.3
20260510161514 31 108 1.6 8.0 0.00 0.00 0.00 14 1015.3
20260510161030 30 111 4.8 8.0 0.00 0.00 0.00 13 1015.3
20260510160526 30 130 3.2 9.7 0.00 0.00 0.00 15 1015.2
20260510160034 30 100 1.6 9.7 0.00 0.00 0.00 15 1015.3
20260510155519 29 102 4.8 9.7 0.00 0.00 0.00 15 1015.3
20260510155016 28 116 4.8 9.7 0.00 0.00 0.00 16 1015.3
20260510154532 28 119 3.2 9.7 0.00 0.00 0.00 16 1015.3
20260510154027 28 110 4.8 11.3 0.00 0.00 0.00 16 1015.3
20260510153523 28 100 3.2 12.9 0.00 0.00 0.00 17 1015.3
20260510153019 27 104 6.4 12.9 0.00 0.00 0.00 17 1015.3
20260510152515 27 119 4.8 8.0 0.00 0.00 0.00 17 1015.3
20260510152014 27 143 3.2 8.0 0.00 0.00 0.00 18 1015.3
20260510151530 27 127 4.8 8.0 0.00 0.00 0.00 19 1015.3
20260510151027 27 124 4.8 8.0 0.00 0.00 0.00 19 1015.2
20260510150523 26 127 3.2 8.0 0.00 0.00 0.00 20 1015.2
20260510150030 26 192 4.8 8.0 0.00 0.00 0.00 19 1015.2
20260510145531 25 106 1.6 6.4 0.00 0.00 0.00 21 1015.2
20260510145027 25 106 3.2 6.4 0.00 0.00 0.00 21 1015.2
20260510144522 25 105 4.8 8.0 0.00 0.00 0.00 21 1015.2
20260510144022 24 105 3.2 8.0 0.00 0.00 0.00 22 1015.2
20260510143518 23 108 3.2 8.0 0.00 0.00 0.00 23 1015.2
20260510143014 23 109 4.8 9.7 0.00 0.00 0.00 23 1015.2
20260510142529 23 110 4.8 9.7 0.00 0.00 0.00 22 1015.1
20260510142025 23 132 4.8 9.7 0.00 0.00 0.00 22 1015.1
20260510141521 23 110 6.4 8.0 0.00 0.00 0.00 21 1015.1
20260510141017 23 135 3.2 6.4 0.00 0.00 0.00 22 1015.1
20260510140516 23 127 1.6 4.8 0.00 0.00 0.00 23 1015.0
20260510140044 22 127 1.6 4.8 0.00 0.00 0.00 25 1015.0
20260510135526 22 127 1.6 6.4 0.00 0.00 0.00 25 1015.0
20260510135022 21 127 3.2 6.4 0.00 0.00 0.00 26 1014.9
20260510134517 21 129 3.2 8.0 0.00 0.00 0.00 26 1014.9
20260510134013 21 132 4.8 8.0 0.00 0.00 0.00 26 1014.9
20260510133529 21 164 3.2 4.8 0.00 0.00 0.00 26 1014.8
20260510133028 21 198 3.2 4.8 0.00 0.00 0.00 27 1014.7
20260510132524 21 210 1.6 4.8 0.00 0.00 0.00 27 1014.6
20260510132020 20 211 1.6 4.8 0.00 0.00 0.00 26 1014.7
20260510131516 20 211 0.0 3.2 0.00 0.00 0.00 27 1014.6
20260510131031 20 164 0.0 3.2 0.00 0.00 0.00 28 1014.5
20260510130527 20 164 0.0 4.8 0.00 0.00 0.00 27 1014.5
20260510130034 19 164 3.2 6.4 0.00 0.00 0.00 28 1014.4
20260510125519 19 164 4.8 6.4 0.00 0.00 0.00 28 1014.3
20260510125015 19 159 1.6 4.8 0.00 0.00 0.00 28 1014.3
20260510124531 18 159 3.2 4.8 0.00 0.00 0.00 28 1014.3
20260510124027 19 159 3.2 4.8 0.00 0.00 0.00 28 1014.2
20260510123522 19 159 3.2 4.8 0.00 0.00 0.00 27 1014.0
20260510123018 19 164 0.0 4.8 0.00 0.00 0.00 27 1014.0
20260510122514 20 164 1.6 6.4 0.00 0.00 0.00 26 1014.0
20260510122013 20 164 1.6 8.0 0.00 0.00 0.00 26 1013.9
20260510121529 20 185 4.8 9.7 0.00 0.00 0.00 25 1013.8
20260510121025 20 191 3.2 9.7 0.00 0.00 0.00 25 1013.9
20260510120521 20 209 1.6 4.8 0.00 0.00 0.00 25 1013.9
20260510120028 20 209 1.6 4.8 0.00 0.00 0.00 25 1013.8
20260510115529 21 209 3.2 4.8 0.00 0.00 0.00 24 1013.8
20260510115025 21 210 1.6 4.8 0.00 0.00 0.00 24 1013.7
20260510114521 20 210 1.6 6.4 0.00 0.00 0.00 24 1013.6
20260510114020 20 210 3.2 6.4 0.00 0.00 0.00 25 1013.6
20260510113517 20 211 0.0 3.2 0.00 0.00 0.00 26 1013.5
20260510113013 19 211 0.0 4.8 0.00 0.00 0.00 27 1013.5
20260510112528 20 211 3.2 4.8 0.00 0.00 0.00 26 1013.3
20260510112024 20 212 3.2 4.8 0.00 0.00 0.00 26 1013.4
20260510111520 20 212 0.0 0.0 0.00 0.00 0.00 25 1013.4
20260510111017 20 211 0.0 3.2 0.00 0.00 0.00 26 1013.3
20260510110516 20 211 1.6 3.2 0.00 0.00 0.00 25 1013.3
20260510110045 20 212 1.6 3.2 0.00 0.00 0.00 24 1013.3
20260510105526 20 212 1.6 3.2 0.00 0.00 0.00 24 1013.3
20260510105022 21 211 0.0 3.2 0.00 0.00 0.00 23 1013.4
20260510104518 21 211 0.0 3.2 0.00 0.00 0.00 22 1013.3
20260510104014 21 211 0.0 3.2 0.00 0.00 0.00 22 1013.4
20260510103529 22 211 1.6 4.8 0.00 0.00 0.00 21 1013.4
20260510103029 22 212 3.2 4.8 0.00 0.00 0.00 21 1013.4
20260510102526 22 211 3.2 4.8 0.00 0.00 0.00 21 1013.4
20260510102022 22 210 3.2 4.8 0.00 0.00 0.00 21 1013.4
20260510101517 22 210 3.2 4.8 0.00 0.00 0.00 21 1013.4
20260510101013 22 208 3.2 4.8 0.00 0.00 0.00 21 1013.3
20260510100529 22 208 3.2 4.8 0.00 0.00 0.00 21 1013.4
20260510100036 22 208 1.6 4.8 0.00 0.00 0.00 21 1013.4
20260510095521 22 208 3.2 4.8 0.00 0.00 0.00 21 1013.4
20260510095017 22 208 3.2 4.8 0.00 0.00 0.00 21 1013.3
20260510094512 22 208 3.2 4.8 0.00 0.00 0.00 20 1013.3
20260510094028 23 208 1.6 4.8 0.00 0.00 0.00 20 1013.3
20260510093524 23 208 3.2 4.8 0.00 0.00 0.00 20 1013.3
20260510093021 23 207 1.6 6.4 0.00 0.00 0.00 19 1013.2
20260510092517 24 207 3.2 6.4 0.00 0.00 0.00 18 1013.3
20260510092017 25 207 4.8 8.0 0.00 0.00 0.00 18 1013.2
20260510091513 24 204 4.8 6.4 0.00 0.00 0.00 18 1013.3
20260510091029 24 198 4.8 8.0 0.00 0.00 0.00 18 1013.2
20260510090525 25 196 4.8 8.0 0.00 0.00 0.00 18 1013.3
20260510090032 25 196 4.8 6.4 0.00 0.00 0.00 17 1013.2
20260510085513 25 144 3.2 6.4 0.00 0.00 0.00 18 1013.2
20260510085029 25 144 1.6 6.4 0.00 0.00 0.00 17 1013.2
20260510084524 25 136 4.8 6.4 0.00 0.00 0.00 17 1013.2
20260510084025 25 109 4.8 6.4 0.00 0.00 0.00 17 1013.2
20260510083521 25 104 4.8 6.4 0.00 0.00 0.00 17 1013.0
20260510083017 25 81 3.2 4.8 0.00 0.00 0.00 18 1013.1
20260510082512 25 58 3.2 4.8 0.00 0.00 0.00 18 1013.1
20260510082028 25 58 3.2 4.8 0.00 0.00 0.00 18 1013.1
20260510081523 25 58 3.2 4.8 0.00 0.00 0.00 18 1013.0
20260510081019 24 58 3.2 4.8 0.00 0.00 0.00 18 1013.0
20260510080519 25 58 1.6 4.8 0.00 0.00 0.00 17 1013.1
20260510080027 25 58 1.6 4.8 0.00 0.00 0.00 17 1013.1
20260510075528 25 58 0.0 6.4 0.00 0.00 0.00 17 1013.2
20260510075023 26 58 3.2 8.0 0.00 0.00 0.00 16 1013.1
20260510074519 26 54 3.2 6.4 0.00 0.00 0.00 16 1013.1
20260510074015 26 329 3.2 4.8 0.00 0.00 0.00 15 1013.1
20260510073530 27 328 1.6 4.8 0.00 0.00 0.00 14 1013.1
20260510073030 28 298 0.0 11.3 0.00 0.00 0.00 13 1013.0
20260510072526 28 290 4.8 11.3 0.00 0.00 0.00 12 1012.9
20260510072021 28 292 4.8 16.1 0.00 0.00 0.00 12 1012.9
20260510071517 29 281 8.0 16.1 0.00 0.00 0.00 12 1012.9
20260510071013 29 297 6.4 16.1 0.00 0.00 0.00 12 1013.0
20260510070529 29 275 6.4 16.1 0.00 0.00 0.00 12 1013.0
20260510070036 29 282 9.7 22.5 0.00 0.00 0.00 12 1012.9
20260510065521 29 277 11.3 22.5 0.00 0.00 0.00 12 1012.9
20260510065017 29 276 11.3 22.5 0.00 0.00 0.00 12 1012.9
20260510064513 29 262 11.3 33.8 0.00 0.00 0.00 12 1013.0
20260510064028 29 268 11.3 33.8 0.00 0.00 0.00 12 1012.9
20260510063524 29 275 11.3 24.1 0.00 0.00 0.00 12 1012.9
20260510063020 29 239 14.5 29.0 0.00 0.00 0.00 12 1012.8
20260510062516 30 260 11.3 29.0 0.00 0.00 0.00 12 1012.8
20260510062015 30 277 16.1 25.7 0.00 0.00 0.00 12 1012.7
20260510061511 29 286 12.9 24.1 0.00 0.00 0.00 12 1012.6
20260510061027 29 269 12.9 25.7 0.00 0.00 0.00 12 1012.6
20260510060523 30 273 14.5 25.7 0.00 0.00 0.00 12 1012.7
20260510060031 30 258 9.7 20.9 0.00 0.00 0.00 12 1012.6
20260510055512 29 263 9.7 20.9 0.00 0.00 0.00 12 1012.4
20260510055027 29 279 8.0 17.7 0.00 0.00 0.00 12 1012.4
20260510054523 29 295 6.4 16.1 0.00 0.00 0.00 12 1012.4
20260510054022 29 275 8.0 16.1 0.00 0.00 0.00 12 1012.4
20260510053518 28 287 4.8 9.7 0.00 0.00 0.00 14 1012.3
20260510053014 27 289 4.8 8.0 0.00 0.00 0.00 14 1012.4
20260510052529 27 287 3.2 6.4 0.00 0.00 0.00 15 1012.1
20260510052025 27 287 3.2 6.4 0.00 0.00 0.00 15 1012.1
20260510051520 27 287 3.2 6.4 0.00 0.00 0.00 15 1012.0
20260510051016 27 287 3.2 6.4 0.00 0.00 0.00 15 1012.0
20260510050516 27 287 3.2 6.4 0.00 0.00 0.00 15 1012.0
20260510050043 28 287 3.2 6.4 0.00 0.00 0.00 14 1011.9
20260510045523 28 287 3.2 9.7 0.00 0.00 0.00 14 1011.9
20260510045018 28 287 4.8 9.7 0.00 0.00 0.00 14 1011.9
20260510044514 29 287 4.8 11.3 0.00 0.00 0.00 14 1011.8
20260510044030 28 282 4.8 11.3 0.00 0.00 0.00 14 1011.7
20260510043526 28 279 4.8 9.7 0.00 0.00 0.00 14 1011.8
20260510043026 28 279 6.4 9.7 0.00 0.00 0.00 14 1011.6
20260510042522 29 283 4.8 6.4 0.00 0.00 0.00 13 1011.6
20260510042018 28 282 3.2 6.4 0.00 0.00 0.00 13 1011.4
20260510041514 29 281 3.2 6.4 0.00 0.00 0.00 13 1011.4
20260510041029 29 281 3.2 6.4 0.00 0.00 0.00 13 1011.3
20260510040525 28 282 4.8 9.7 0.00 0.00 0.00 13 1011.3
20260510040033 29 282 4.8 9.7 0.00 0.00 0.00 13 1011.3
20260510035519 29 284 4.8 6.4 0.00 0.00 0.00 13 1011.1
20260510035014 29 283 3.2 6.4 0.00 0.00 0.00 13 1011.2
20260510034530 30 283 4.8 6.4 0.00 0.00 0.00 12 1011.1
20260510034026 30 283 4.8 6.4 0.00 0.00 0.00 12 1011.0
20260510033521 30 285 4.8 9.7 0.00 0.00 0.00 12 1011.0
20260510033017 30 283 4.8 9.7 0.00 0.00 0.00 12 1010.9
20260510032533 30 287 4.8 11.3 0.00 0.00 0.00 12 1010.8
20260510032028 30 289 4.8 11.3 0.00 0.00 0.00 12 1010.7
20260510031528 30 315 4.8 9.7 0.00 0.00 0.00 12 1010.5
20260510031024 29 329 3.2 8.0 0.00 0.00 0.00 13 1010.6
20260510030519 29 329 4.8 8.0 0.00 0.00 0.00 13 1010.4
20260510030046 29 331 4.8 8.0 0.00 0.00 0.00 13 1010.3
20260510025528 30 331 3.2 4.8 0.00 0.00 0.00 13 1010.3
20260510025024 30 331 3.2 4.8 0.00 0.00 0.00 12 1010.2
20260510024519 30 331 3.2 4.8 0.00 0.00 0.00 12 1010.1
20260510024019 31 331 4.8 4.8 0.00 0.00 0.00 11 1010.1
20260510023515 31 331 1.6 4.8 0.00 0.00 0.00 11 1010.0
20260510023030 31 331 3.2 4.8 0.00 0.00 0.00 11 1010.0
20260510022527 32 331 1.6 3.2 0.00 0.00 0.00 11 1009.9
20260510022023 32 331 1.6 3.2 0.00 0.00 0.00 10 1009.9
20260510021519 32 331 1.6 4.8 0.00 0.00 0.00 10 1009.9
20260510021014 32 331 1.6 8.0 0.00 0.00 0.00 10 1009.8
20260510020514 33 327 3.2 8.0 0.00 0.00 0.00 10 1009.9
20260510020042 33 324 1.6 8.0 0.00 0.00 0.00 10 1009.6
20260510015523 33 329 1.6 8.0 0.00 0.00 0.00 10 1009.6
20260510015019 33 329 3.2 17.7 0.00 0.00 0.00 10 1009.6
20260510014515 33 17 4.8 17.7 0.00 0.00 0.00 9 1009.6
20260510014031 33 322 1.6 8.0 0.00 0.00 0.00 9 1009.6
20260510013526 34 295 4.8 8.0 0.00 0.00 0.00 9 1009.6
20260510013026 34 303 1.6 6.4 0.00 0.00 0.00 9 1009.6
20260510012522 34 302 3.2 9.7 0.00 0.00 0.00 9 1009.6
20260510012017 34 310 3.2 11.3 0.00 0.00 0.00 9 1009.7
20260510011513 34 358 3.2 14.5 0.00 0.00 0.00 9 1009.6
20260510011029 35 340 3.2 14.5 0.00 0.00 0.00 9 1009.6
20260510010526 35 346 3.2 16.1 0.00 0.00 0.00 9 1009.6
20260510010033 35 316 3.2 16.1 0.00 0.00 0.00 9 1009.5
20260510005518 35 288 6.4 12.9 0.00 0.00 0.00 9 1009.6
20260510005014 35 288 3.2 9.7 0.00 0.00 0.00 8 1009.6
20260510004530 35 346 3.2 8.0 0.00 0.00 0.00 8 1009.6
20260510004026 36 303 3.2 14.5 0.00 0.00 0.00 8 1009.5
20260510003522 36 279 6.4 14.5 0.00 0.00 0.00 8 1009.6
20260510003018 36 293 4.8 11.3 0.00 0.00 0.00 8 1009.6
20260510002514 35 352 4.8 14.5 0.00 0.00 0.00 9 1009.6
20260510002013 35 293 4.8 14.5 0.00 0.00 0.00 9 1009.7
20260510001530 35 3 6.4 12.9 0.00 0.00 0.00 9 1009.7
20260510001026 36 317 4.8 11.3 0.00 0.00 0.00 9 1009.6
20260510000522 36 294 6.4 20.9 0.00 0.00 0.00 8 1009.7
20260510000029 36 298 6.4 20.9 0.00 0.00 0.00 8 1009.7
20260509235530 36 265 8.0 19.3 0.00 0.00 0.00 8 1009.7
20260509235026 37 266 6.4 19.3 0.00 0.00 0.00 8 1009.9
20260509234522 36 300 3.2 11.3 0.00 0.00 0.00 9 1009.8
20260509234022 36 245 3.2 14.5 0.00 0.00 0.00 8 1009.8
20260509233517 36 275 8.0 14.5 0.00 0.00 0.00 8 1009.9
20260509233013 36 4 4.8 12.9 0.00 0.00 0.00 9 1010.0
20260509232529 36 36 4.8 16.1 0.00 0.00 0.00 8 1010.0
20260509232024 36 359 4.8 16.1 0.00 0.00 0.00 8 1010.0
20260509231519 36 323 3.2 11.3 0.00 0.00 0.00 9 1010.1
20260509231016 36 11 3.2 9.7 0.00 0.00 0.00 8 1010.1
20260509230516 37 273 4.8 17.7 0.00 0.00 0.00 8 1010.3
20260509230043 37 271 8.0 17.7 0.00 0.00 0.00 8 1010.3
20260509225524 37 260 8.0 22.5 0.00 0.00 0.00 8 1010.3
20260509225019 37 277 12.9 20.9 0.00 0.00 0.00 8 1010.4
20260509224516 37 324 6.4 19.3 0.00 0.00 0.00 8 1010.5
20260509224032 37 290 8.0 19.3 0.00 0.00 0.00 8 1010.5
20260509223528 37 271 6.4 14.5 0.00 0.00 0.00 9 1010.6
20260509223027 37 339 4.8 11.3 0.00 0.00 0.00 9 1010.6
20260509222523 36 339 3.2 17.7 0.00 0.00 0.00 9 1010.6
20260509222019 36 356 4.8 17.7 0.00 0.00 0.00 9 1010.8
20260509221515 37 309 3.2 11.3 0.00 0.00 0.00 9 1010.7
20260509221031 37 76 4.8 17.7 0.00 0.00 0.00 8 1010.9
20260509220526 37 270 3.2 20.9 0.00 0.00 0.00 9 1010.9
20260509220035 37 291 11.3 19.3 0.00 0.00 0.00 9 1011.1
20260509215520 36 294 4.8 17.7 0.00 0.00 0.00 9 1011.1
20260509215016 35 113 1.6 17.7 0.00 0.00 0.00 9 1011.2
20260509214531 36 65 8.0 17.7 0.00 0.00 0.00 9 1011.3
20260509214027 37 289 8.0 19.3 0.00 0.00 0.00 9 1011.4
20260509213523 37 294 9.7 19.3 0.00 0.00 0.00 9 1011.4
20260509213020 37 11 4.8 12.9 0.00 0.00 0.00 9 1011.4
20260509212516 37 349 4.8 12.9 0.00 0.00 0.00 9 1011.6
20260509212016 37 320 6.4 14.5 0.00 0.00 0.00 9 1011.6
20260509211531 37 292 6.4 14.5 0.00 0.00 0.00 9 1011.8
20260509211028 36 313 6.4 12.9 0.00 0.00 0.00 9 1012.0
20260509210524 36 353 4.8 12.9 0.00 0.00 0.00 9 1012.0
20260509210031 37 6 3.2 12.9 0.00 0.00 0.00 9 1012.1
20260509205513 37 353 4.8 16.1 0.00 0.00 0.00 9 1012.2